Year,Month,Day,Hour,Minute,Value (Times are PST for temperature in C)
2018,01,26,09,56,3.10
2018,01,26,09,57,3.20
2018,01,26,09,58,3.20
2018,01,26,09,59,3.30
2018,01,26,10,00,3.30
2018,01,26,10,01,3.30
2018,01,26,10,02,3.40
2018,01,26,10,03,3.40
2018,01,26,10,04,3.40
2018,01,26,10,05,3.40
2018,01,26,10,06,3.50
2018,01,26,10,07,3.50
2018,01,26,10,08,3.60
2018,01,26,10,09,3.60
2018,01,26,10,10,3.60
2018,01,26,10,11,3.60
2018,01,26,10,12,3.60
2018,01,26,10,13,3.60
2018,01,26,10,14,3.60
2018,01,26,10,15,3.60
2018,01,26,10,16,3.60
2018,01,26,10,17,3.60
2018,01,26,10,18,3.60
2018,01,26,10,19,3.60
2018,01,26,10,20,3.70
2018,01,26,10,21,3.70
2018,01,26,10,22,3.70
2018,01,26,10,23,3.70
2018,01,26,10,24,3.70
2018,01,26,10,25,3.70
2018,01,26,10,26,3.70
2018,01,26,10,27,3.80
2018,01,26,10,28,3.80
2018,01,26,10,29,3.80
2018,01,26,10,30,3.80
2018,01,26,10,31,3.80
2018,01,26,10,32,3.80
2018,01,26,10,33,3.80
2018,01,26,10,34,3.80
2018,01,26,10,35,3.80
2018,01,26,10,36,3.80
2018,01,26,10,37,3.80
2018,01,26,10,38,3.80
2018,01,26,10,39,3.80
2018,01,26,10,40,3.80
2018,01,26,10,41,3.70
2018,01,26,10,42,3.70
2018,01,26,10,43,3.70
2018,01,26,10,44,3.70
2018,01,26,10,45,3.70
2018,01,26,10,46,3.70
2018,01,26,10,47,3.70
2018,01,26,10,48,3.70
2018,01,26,10,49,3.70
2018,01,26,10,50,3.60
2018,01,26,10,51,3.60
2018,01,26,10,52,3.60
2018,01,26,10,53,3.60
2018,01,26,10,54,3.60
2018,01,26,10,55,3.60
2018,01,26,10,56,3.60
2018,01,26,10,57,3.60
2018,01,26,10,58,3.60
2018,01,26,10,59,3.60
2018,01,26,11,00,3.50
2018,01,26,11,01,3.50
2018,01,26,11,02,3.50
2018,01,26,11,03,3.50
2018,01,26,11,04,3.50
2018,01,26,11,05,3.50
2018,01,26,11,06,3.50
2018,01,26,11,07,3.50
2018,01,26,11,08,3.50
2018,01,26,11,09,3.50
2018,01,26,11,10,3.50
2018,01,26,11,11,3.50
2018,01,26,11,12,3.50
2018,01,26,11,13,3.50
2018,01,26,11,14,3.50
2018,01,26,11,15,3.50
2018,01,26,11,16,3.50
2018,01,26,11,17,3.50
2018,01,26,11,18,3.50
2018,01,26,11,19,3.50
2018,01,26,11,20,3.50
2018,01,26,11,21,3.50
2018,01,26,11,22,3.50
2018,01,26,11,23,3.50
2018,01,26,11,24,3.50
2018,01,26,11,25,3.60
2018,01,26,11,26,3.60
2018,01,26,11,27,3.60
2018,01,26,11,28,3.60
2018,01,26,11,29,3.60
2018,01,26,11,30,3.60
2018,01,26,11,31,3.60
2018,01,26,11,32,3.60
2018,01,26,11,33,3.60
2018,01,26,11,34,3.70
2018,01,26,11,35,3.70
2018,01,26,11,36,3.80
2018,01,26,11,37,3.80
2018,01,26,11,38,3.80
2018,01,26,11,39,3.90
2018,01,26,11,40,4.00
2018,01,26,11,41,4.00
2018,01,26,11,42,4.00
2018,01,26,11,43,4.00
2018,01,26,11,44,4.00
2018,01,26,11,45,4.10
2018,01,26,11,46,4.00
2018,01,26,11,47,4.10
2018,01,26,11,48,4.10
2018,01,26,11,49,4.10
2018,01,26,11,50,4.10
2018,01,26,11,51,4.10
2018,01,26,11,52,4.10
2018,01,26,11,53,4.00
2018,01,26,11,54,4.10
2018,01,26,11,55,4.10
2018,01,26,11,56,4.10
2018,01,26,11,57,4.10
2018,01,26,11,58,4.10
2018,01,26,11,59,4.10
2018,01,26,12,00,4.10
2018,01,26,12,01,4.00
2018,01,26,12,02,4.00
2018,01,26,12,03,4.00
2018,01,26,12,04,4.00
2018,01,26,12,05,4.00
2018,01,26,12,06,4.00
2018,01,26,12,07,4.10
2018,01,26,12,08,4.10
2018,01,26,12,09,4.10
2018,01,26,12,10,4.20
2018,01,26,12,11,4.20
2018,01,26,12,12,4.20
2018,01,26,12,13,4.30
2018,01,26,12,14,4.30
2018,01,26,12,15,4.30
2018,01,26,12,16,4.30
2018,01,26,12,17,4.40
2018,01,26,12,18,4.40
2018,01,26,12,19,4.40
2018,01,26,12,20,4.40
2018,01,26,12,21,4.50
2018,01,26,12,22,4.50
2018,01,26,12,23,4.50
2018,01,26,12,24,4.50
2018,01,26,12,25,4.60
2018,01,26,12,26,4.60
2018,01,26,12,27,4.60
2018,01,26,12,28,4.60
2018,01,26,12,29,4.60
2018,01,26,12,30,4.60
2018,01,26,12,31,4.60
2018,01,26,12,32,4.60
2018,01,26,12,33,4.60
2018,01,26,12,34,4.60
2018,01,26,12,35,4.60
2018,01,26,12,36,4.60
2018,01,26,12,37,4.60
2018,01,26,12,38,4.60
2018,01,26,12,39,4.60
2018,01,26,12,40,4.60
2018,01,26,12,41,4.60
2018,01,26,12,42,4.70
2018,01,26,12,43,4.70
2018,01,26,12,44,4.70
2018,01,26,12,45,4.70
2018,01,26,12,46,4.70
2018,01,26,12,47,4.70
2018,01,26,12,48,4.80
2018,01,26,12,49,4.80
2018,01,26,12,50,4.80
2018,01,26,12,51,4.80
2018,01,26,12,52,4.80
2018,01,26,12,53,4.80
2018,01,26,12,54,4.90
2018,01,26,12,55,4.90
2018,01,26,12,56,5.00
2018,01,26,12,57,5.00
2018,01,26,12,58,5.10
2018,01,26,12,59,5.10
2018,01,26,13,00,5.10
2018,01,26,13,01,5.10
2018,01,26,13,02,5.10
2018,01,26,13,03,5.20
2018,01,26,13,04,5.20
2018,01,26,13,05,5.20
2018,01,26,13,06,5.20
2018,01,26,13,07,5.20
2018,01,26,13,08,5.10
2018,01,26,13,09,5.10
2018,01,26,13,10,5.20
2018,01,26,13,11,5.20
2018,01,26,13,12,5.20
2018,01,26,13,13,5.20
2018,01,26,13,14,5.20
2018,01,26,13,15,5.30
2018,01,26,13,16,5.30
2018,01,26,13,17,5.30
2018,01,26,13,18,5.40
2018,01,26,13,19,5.40
2018,01,26,13,20,5.40
2018,01,26,13,21,5.50
2018,01,26,13,22,5.50
2018,01,26,13,23,5.50
2018,01,26,13,24,5.50
2018,01,26,13,25,5.50
2018,01,26,13,26,5.60
2018,01,26,13,27,5.60
2018,01,26,13,28,5.60
2018,01,26,13,29,5.60
2018,01,26,13,30,5.60
2018,01,26,13,31,5.60
2018,01,26,13,32,5.60
2018,01,26,13,33,5.60
2018,01,26,13,34,5.60
2018,01,26,13,35,5.60
2018,01,26,13,36,5.60
2018,01,26,13,37,5.60
2018,01,26,13,38,5.60
2018,01,26,13,39,5.60
2018,01,26,13,40,5.60
2018,01,26,13,41,5.70
2018,01,26,13,42,5.70
2018,01,26,13,43,5.70
2018,01,26,13,44,5.70
2018,01,26,13,45,5.70
2018,01,26,13,46,5.70
2018,01,26,13,47,5.70
2018,01,26,13,48,5.70
2018,01,26,13,49,5.70
2018,01,26,13,50,5.70
2018,01,26,13,51,5.70
2018,01,26,13,52,5.70
2018,01,26,13,53,5.70
2018,01,26,13,54,5.70
2018,01,26,13,55,5.70
2018,01,26,13,56,5.70
2018,01,26,13,57,5.70
2018,01,26,13,58,5.70
2018,01,26,13,59,5.60
2018,01,26,14,00,5.60
2018,01,26,14,01,5.60
2018,01,26,14,02,5.60
2018,01,26,14,03,5.60
2018,01,26,14,04,5.60
2018,01,26,14,05,5.60
2018,01,26,14,06,5.60
2018,01,26,14,07,5.60
2018,01,26,14,08,5.60
2018,01,26,14,09,5.60
2018,01,26,14,10,5.60
2018,01,26,14,11,5.50
2018,01,26,14,12,5.50
2018,01,26,14,13,5.50
2018,01,26,14,14,5.50
2018,01,26,14,15,5.50
2018,01,26,14,16,5.50
2018,01,26,14,17,5.50
2018,01,26,14,18,5.50
2018,01,26,14,19,5.50
2018,01,26,14,20,5.50
2018,01,26,14,21,5.50
2018,01,26,14,22,5.50
2018,01,26,14,23,5.50
2018,01,26,14,24,5.50
2018,01,26,14,25,5.50
2018,01,26,14,26,5.50
2018,01,26,14,27,5.50
2018,01,26,14,28,5.50
2018,01,26,14,29,5.50
2018,01,26,14,30,5.50
2018,01,26,14,31,5.40
2018,01,26,14,32,5.40
2018,01,26,14,33,5.40
2018,01,26,14,34,5.40
2018,01,26,14,35,5.40
2018,01,26,14,36,5.50
2018,01,26,14,37,5.40
2018,01,26,14,38,5.40
2018,01,26,14,39,5.40
2018,01,26,14,40,5.40
2018,01,26,14,41,5.40
2018,01,26,14,42,5.40
2018,01,26,14,43,5.40
2018,01,26,14,44,5.40
2018,01,26,14,45,5.40
2018,01,26,14,46,5.40
2018,01,26,14,47,5.40
2018,01,26,14,48,5.40
2018,01,26,14,49,5.40
2018,01,26,14,50,5.40
2018,01,26,14,51,5.40
2018,01,26,14,52,5.40
2018,01,26,14,53,5.40
2018,01,26,14,54,5.40
2018,01,26,14,55,5.40
2018,01,26,14,56,5.40
2018,01,26,14,57,5.40
2018,01,26,14,58,5.40
2018,01,26,14,59,5.40
2018,01,26,15,00,5.40
2018,01,26,15,01,5.40
2018,01,26,15,02,5.40
2018,01,26,15,03,5.40
2018,01,26,15,04,5.40
2018,01,26,15,05,5.40
2018,01,26,15,06,5.40
2018,01,26,15,07,5.40
2018,01,26,15,08,5.30
2018,01,26,15,09,5.30
2018,01,26,15,10,5.30
2018,01,26,15,11,5.30
2018,01,26,15,12,5.30
2018,01,26,15,13,5.30
2018,01,26,15,14,5.30
2018,01,26,15,15,5.30
2018,01,26,15,16,5.30
2018,01,26,15,17,5.30
2018,01,26,15,18,5.30
2018,01,26,15,19,5.30
2018,01,26,15,20,5.20
2018,01,26,15,21,5.20
2018,01,26,15,22,5.20
2018,01,26,15,23,5.20
2018,01,26,15,24,5.20
2018,01,26,15,25,5.20
2018,01,26,15,26,5.20
2018,01,26,15,27,5.20
2018,01,26,15,28,5.20
2018,01,26,15,29,5.20
2018,01,26,15,30,5.20
2018,01,26,15,31,5.20
2018,01,26,15,32,5.20
2018,01,26,15,33,5.20
2018,01,26,15,34,5.20
2018,01,26,15,35,5.20
2018,01,26,15,36,5.20
2018,01,26,15,37,5.20
2018,01,26,15,38,5.20
2018,01,26,15,39,5.20
2018,01,26,15,40,5.20
2018,01,26,15,41,5.20
2018,01,26,15,42,5.20
2018,01,26,15,43,5.20
2018,01,26,15,44,5.20
2018,01,26,15,45,5.20
2018,01,26,15,46,5.20
2018,01,26,15,47,5.20
2018,01,26,15,48,5.20
